QPF
0.02 0.04 0.03 0.05 0.05 0.04 0.04 0.06 0.06 0.05 0.06 0.05 0.03 0.05 0.08 0.05 0.03 0.03 0.05 0.08 0.07 0.07 0.09 0.12 0.11 0.09 0.10 0.10 0.09 0.10 0.10 0.07 0.06 0.05 0.08 0.07 0.06 0.07 0.08 0.07 0.07 0.07 0.05
0.02 0.03 0.03 0.03 0.05 0.04 0.04 0.04 0.04 0.04 0.03 0.04 0.04 0.03 0.09 0.09 0.04 0.03 0.05 0.09 0.09 0.07 0.07 0.08 0.08 0.09 0.10 0.09 0.08 0.07 0.07 0.07 0.07 0.07 0.07 0.05 0.05 0.07 0.10 0.09 0.07 0.07 0.06
0.01 0.02 0.01 0.03 0.04 0.05 0.04 0.04 0.04 0.03 0.03 0.03 0.03 0.04 0.07 0.07 0.04 0.04 0.04 0.05 0.06 0.08 0.07 0.06 0.06 0.08 0.08 0.09 0.08 0.07 0.07 0.07 0.08 0.08 0.07 0.06 0.06 0.07 0.08 0.12 0.09 0.07 0.06
0.02 0.02 0.02 0.05 0.07 0.07 0.06 0.04 0.04 0.03 0.03 0.03 0.03 0.04 0.04 0.04 0.03 0.04 0.03 0.04 0.05 0.05 0.05 0.06 0.06 0.07 0.07 0.06 0.08 0.07 0.08 0.08 0.07 0.07 0.09 0.10 0.09 0.08 0.09 0.11 0.11 0.09 0.06
0.04 0.03 0.04 0.05 0.04 0.05 0.07 0.06 0.05 0.04 0.03 0.04 0.04 0.04 0.03 0.03 0.03 0.03 0.03 0.04 0.04 0.05 0.05 0.07 0.06 0.06 0.06 0.05 0.06 0.07 0.09 0.07 0.05 0.04 0.05 0.06 0.08 0.11 0.11 0.12 0.11 0.10 0.09
0.03 0.04 0.04 0.03 0.04 0.05 0.06 0.06 0.04 0.03 0.03 0.03 0.04 0.03 0.03 0.02 0.03 0.03 0.03 0.03 0.03 0.03 0.03 0.05 0.07 0.06 0.05 0.05 0.04 0.06 0.06 0.06 0.05 0.05 0.04 0.05 0.06 0.07 0.07 0.08 0.09 0.10 0.12
0.02 0.02 0.02 0.02 0.03 0.05 0.05 0.06 0.05 0.04 0.03 0.03 0.05 0.05 0.05 0.05 0.03 0.02 0.03 0.04 0.03 0.03 0.02 0.03 0.04 0.04 0.03 0.04 0.03 0.04 0.06 0.06 0.06 0.06 0.06 0.06 0.06 0.07 0.07 0.07 0.05 0.05 0.07
0.01 0.01 0.01 0.01 0.01 0.04 0.06 0.06 0.05 0.05 0.04 0.03 0.05 0.07 0.06 0.06 0.04 0.02 0.03 0.03 0.03 0.03 0.03 0.03 0.03 0.03 0.03 0.03 0.03 0.04 0.04 0.04 0.05 0.07 0.07 0.07 0.08 0.08 0.07 0.09 0.08 0.06 0.06
0.00 0.01 0.01 0.01 0.02 0.02 0.03 0.04 0.03 0.04 0.05 0.04 0.05 0.07 0.06 0.05 0.04 0.03 0.03 0.04 0.04 0.04 0.03 0.03 0.02 0.02 0.02 0.03 0.03 0.03 0.04 0.04 0.04 0.06 0.08 0.07 0.07 0.07 0.08 0.08 0.08 0.06 0.07
0.00 0.01 0.01 0.01 0.02 0.03 0.05 0.05 0.03 0.04 0.06 0.05 0.05 0.05 0.05 0.04 0.03 0.02 0.02 0.03 0.04 0.04 0.03 0.03 0.02 0.02 0.02 0.02 0.02 0.03 0.03 0.03 0.03 0.04 0.05 0.07 0.06 0.05 0.04 0.07 0.09 0.08 0.08
0.01 0.02 0.02 0.02 0.02 0.04 0.05 0.06 0.08 0.07 0.06 0.05 0.03 0.02 0.02 0.03 0.02 0.03 0.03 0.03 0.03 0.03 0.03 0.04 0.03 0.03 0.03 0.03 0.02 0.03 0.03 0.03 0.03 0.03 0.04 0.05 0.06 0.05 0.04 0.05 0.08 0.08 0.09
0.01 0.01 0.01 0.02 0.03 0.04 0.05 0.04 0.07 0.11 0.11 0.11 0.07 0.04 0.04 0.03 0.04 0.04 0.03 0.03 0.04 0.04 0.04 0.04 0.04 0.04 0.03 0.03 0.03 0.03 0.03 0.03 0.03 0.03 0.03 0.03 0.04 0.05 0.05 0.07 0.09 0.09 0.10
0.01 0.01 0.02 0.02 0.02 0.04 0.05 0.05 0.09 0.08 0.07 0.07 0.05 0.06 0.07 0.07 0.07 0.06 0.06 0.06 0.07 0.07 0.05 0.04 0.04 0.04 0.03 0.03 0.04 0.04 0.03 0.03 0.02 0.02 0.03 0.04 0.03 0.03 0.04 0.06 0.08 0.10 0.11
0.00 0.01 0.02 0.02 0.02 0.03 0.04 0.05 0.07 0.06 0.05 0.02 0.01 0.01 0.01 0.02 0.03 0.04 0.05 0.05 0.06 0.07 0.06 0.06 0.05 0.04 0.04 0.03 0.04 0.05 0.04 0.03 0.03 0.03 0.03 0.03 0.03 0.03 0.02 0.04 0.07 0.12 0.08
0.01 0.01 0.02 0.02 0.02 0.03 0.04 0.05 0.06 0.05 0.03 0.02 0.02 0.02 0.02 0.04 0.05 0.05 0.05 0.05 0.05 0.05 0.05 0.05 0.05 0.05 0.04 0.03 0.04 0.04 0.04 0.04 0.04 0.03 0.02 0.03 0.02 0.01 0.01 0.01 0.03 0.05 0.03
0.00 0.01 0.01 0.02 0.03 0.04 0.04 0.04 0.04 0.03 0.02 0.01 0.02 0.02 0.02 0.03 0.04 0.05 0.07 0.07 0.06 0.05 0.04 0.04 0.04 0.04 0.03 0.02 0.03 0.02 0.03 0.03 0.04 0.04 0.03 0.03 0.02 0.01 0.01 0.01 0.02 0.04 0.03
0.01 0.01 0.01 0.01 0.03 0.04 0.03 0.03 0.02 0.02 0.02 0.01 0.01 0.01 0.02 0.02 0.02 0.03 0.04 0.06 0.07 0.08 0.06 0.05 0.06 0.06 0.04 0.03 0.02 0.01 0.02 0.03 0.03 0.03 0.04 0.03 0.03 0.02 0.01 0.01 0.01 0.02 0.03
0.02 0.01 0.01 0.01 0.02 0.03 0.04 0.03 0.02 0.03 0.03 0.02 0.01 0.01 0.02 0.02 0.03 0.05 0.06 0.06 0.06 0.06 0.06 0.05 0.05 0.06 0.06 0.04 0.03 0.02 0.02 0.03 0.03 0.03 0.03 0.03 0.02 0.01 0.01 0.01 0.01 0.01 0.02
0.04 0.03 0.03 0.02 0.03 0.04 0.06 0.06 0.05 0.04 0.03 0.03 0.02 0.02 0.03 0.02 0.02 0.03 0.03 0.04 0.06 0.07 0.06 0.05 0.05 0.04 0.03 0.04 0.04 0.03 0.02 0.02 0.03 0.03 0.03 0.03 0.02 0.01 0.01 0.01 0.01 0.01 0.02
0.06 0.05 0.05 0.05 0.04 0.03 0.04 0.06 0.06 0.05 0.04 0.04 0.04 0.03 0.03 0.02 0.02 0.01 0.01 0.03 0.04 0.04 0.04 0.04 0.03 0.03 0.02 0.03 0.02 0.02 0.02 0.02 0.02 0.03 0.04 0.03 0.02 0.01 0.01 0.01 0.02 0.02 0.03
0.04 0.04 0.04 0.03 0.02 0.01 0.02 0.02 0.03 0.04 0.04 0.05 0.06 0.04 0.03 0.02 0.02 0.02 0.02 0.02 0.03 0.03 0.03 0.03 0.03 0.03 0.03 0.04 0.05 0.06 0.05 0.04 0.03 0.03 0.04 0.03 0.01 0.01 0.01 0.01 0.01 0.02 0.02
0.06 0.05 0.03 0.02 0.01 0.00 0.01 0.01 0.02 0.02 0.03 0.03 0.05 0.05 0.02 0.01 0.01 0.02 0.03 0.02 0.03 0.04 0.04 0.04 0.04 0.04 0.04 0.03 0.04 0.06 0.06 0.05 0.03 0.02 0.02 0.02 0.01 0.01 0.01 0.01 0.01 0.01 0.02
0.06 0.07 0.05 0.03 0.02 0.01 0.01 0.01 0.01 0.02 0.03 0.03 0.03 0.03 0.03 0.01 0.01 0.02 0.03 0.03 0.03 0.03 0.03 0.04 0.04 0.05 0.04 0.03 0.02 0.02 0.02 0.02 0.02 0.02 0.02 0.01 0.01 0.02 0.01 0.01 0.01 0.01 0.01
0.07 0.06 0.06 0.05 0.03 0.03 0.02 0.01 0.02 0.02 0.03 0.02 0.03 0.03 0.04 0.03 0.03 0.02 0.02 0.03 0.02 0.02 0.02 0.02 0.03 0.03 0.03 0.04 0.04 0.03 0.03 0.03 0.02 0.01 0.02 0.01 0.01 0.01 0.02 0.01 0.02 0.02 0.02
0.08 0.09 0.08 0.06 0.04 0.03 0.04 0.04 0.03 0.02 0.02 0.02 0.02 0.02 0.03 0.03 0.02 0.01 0.02 0.02 0.02 0.03 0.03 0.03 0.03 0.03 0.04 0.05 0.05 0.05 0.04 0.03 0.02 0.01 0.02 0.02 0.02 0.02 0.01 0.01 0.01 0.01 0.01
0.10 0.11 0.11 0.09 0.07 0.06 0.06 0.06 0.03 0.02 0.01 0.01 0.02 0.01 0.02 0.02 0.02 0.02 0.02 0.03 0.02 0.02 0.02 0.02 0.02 0.02 0.02 0.03 0.04 0.04 0.04 0.04 0.03 0.03 0.03 0.03 0.02 0.02 0.01 0.01 0.01 0.01 0.01
MSLP
1015.98 1015.95 1015.85 1015.69 1015.48 1015.25 1015.01 1014.78 1014.55 1014.33 1014.12 1013.91 1013.72 1013.56 1013.44 1013.38 1013.39 1013.46 1013.58 1013.73 1013.88 1014.02 1014.13 1014.20 1014.24 1014.27 1014.30 1014.35 1014.41 1014.49 1014.58 1014.65 1014.70 1014.71 1014.69 1014.63 1014.55 1014.45 1014.34 1014.22 1014.10 1013.96 1013.80
1016.07 1016.04 1015.95 1015.80 1015.60 1015.37 1015.13 1014.88 1014.64 1014.41 1014.18 1013.97 1013.78 1013.62 1013.49 1013.41 1013.38 1013.40 1013.46 1013.54 1013.64 1013.73 1013.81 1013.88 1013.93 1013.97 1014.02 1014.06 1014.11 1014.15 1014.19 1014.22 1014.22 1014.19 1014.14 1014.06 1013.98 1013.88 1013.78 1013.66 1013.53 1013.38 1013.21
1016.12 1016.11 1016.04 1015.91 1015.74 1015.54 1015.31 1015.07 1014.83 1014.60 1014.38 1014.17 1013.98 1013.81 1013.67 1013.56 1013.47 1013.42 1013.40 1013.41 1013.43 1013.47 1013.52 1013.57 1013.63 1013.68 1013.73 1013.77 1013.80 1013.81 1013.79 1013.75 1013.69 1013.61 1013.52 1013.43 1013.34 1013.25 1013.16 1013.06 1012.94 1012.80 1012.62
1016.14 1016.14 1016.10 1016.02 1015.90 1015.73 1015.53 1015.31 1015.09 1014.86 1014.65 1014.46 1014.28 1014.12 1013.96 1013.82 1013.69 1013.57 1013.46 1013.38 1013.32 1013.30 1013.30 1013.33 1013.38 1013.44 1013.49 1013.51 1013.51 1013.47 1013.39 1013.28 1013.14 1013.01 1012.88 1012.76 1012.67 1012.60 1012.53 1012.46 1012.36 1012.24 1012.08
1016.12 1016.14 1016.14 1016.11 1016.03 1015.91 1015.74 1015.55 1015.35 1015.15 1014.97 1014.80 1014.65 1014.50 1014.35 1014.20 1014.03 1013.85 1013.67 1013.51 1013.37 1013.27 1013.22 1013.21 1013.24 1013.28 1013.31 1013.31 1013.27 1013.17 1013.02 1012.83 1012.62 1012.42 1012.25 1012.11 1012.02 1011.96 1011.92 1011.88 1011.82 1011.74 1011.61
1016.09 1016.13 1016.16 1016.17 1016.13 1016.05 1015.92 1015.76 1015.59 1015.42 1015.27 1015.15 1015.04 1014.93 1014.81 1014.67 1014.49 1014.28 1014.05 1013.81 1013.60 1013.43 1013.32 1013.26 1013.25 1013.25 1013.25 1013.21 1013.11 1012.95 1012.72 1012.46 1012.18 1011.92 1011.70 1011.53 1011.44 1011.39 1011.38 1011.38 1011.37 1011.32 1011.23
1016.07 1016.12 1016.17 1016.20 1016.20 1016.15 1016.05 1015.91 1015.77 1015.64 1015.54 1015.46 1015.41 1015.37 1015.31 1015.21 1015.05 1014.83 1014.57 1014.29 1014.02 1013.79 1013.61 1013.49 1013.42 1013.37 1013.31 1013.22 1013.06 1012.83 1012.53 1012.20 1011.85 1011.53 1011.27 1011.09 1010.98 1010.94 1010.95 1010.98 1011.01 1010.99 1010.94
1016.09 1016.13 1016.19 1016.24 1016.25 1016.21 1016.13 1016.02 1015.90 1015.81 1015.75 1015.74 1015.77 1015.80 1015.82 1015.78 1015.67 1015.48 1015.22 1014.92 1014.61 1014.32 1014.07 1013.88 1013.74 1013.62 1013.50 1013.34 1013.11 1012.82 1012.46 1012.06 1011.66 1011.29 1011.00 1010.79 1010.67 1010.63 1010.65 1010.70 1010.74 1010.75 1010.72
1016.15 1016.19 1016.25 1016.29 1016.31 1016.28 1016.20 1016.10 1016.00 1015.94 1015.93 1015.98 1016.08 1016.20 1016.30 1016.35 1016.31 1016.16 1015.93 1015.63 1015.29 1014.96 1014.65 1014.40 1014.18 1013.99 1013.79 1013.56 1013.27 1012.91 1012.49 1012.04 1011.59 1011.19 1010.87 1010.63 1010.50 1010.45 1010.46 1010.51 1010.55 1010.57 1010.55
1016.25 1016.28 1016.34 1016.39 1016.40 1016.37 1016.29 1016.19 1016.10 1016.06 1016.09 1016.19 1016.36 1016.55 1016.74 1016.87 1016.90 1016.82 1016.62 1016.34 1016.00 1015.63 1015.29 1014.97 1014.68 1014.41 1014.14 1013.83 1013.48 1013.06 1012.60 1012.11 1011.63 1011.20 1010.85 1010.60 1010.44 1010.37 1010.36 1010.39 1010.41 1010.41 1010.38
1016.35 1016.39 1016.45 1016.50 1016.51 1016.48 1016.40 1016.30 1016.22 1016.19 1016.24 1016.38 1016.59 1016.85 1017.10 1017.30 1017.40 1017.38 1017.23 1016.98 1016.65 1016.28 1015.90 1015.53 1015.18 1014.85 1014.50 1014.13 1013.72 1013.25 1012.75 1012.23 1011.73 1011.28 1010.92 1010.64 1010.46 1010.36 1010.32 1010.30 1010.29 1010.26 1010.21
1016.41 1016.48 1016.55 1016.61 1016.62 1016.59 1016.52 1016.42 1016.34 1016.32 1016.38 1016.54 1016.78 1017.07 1017.36 1017.61 1017.77 1017.80 1017.71 1017.49 1017.19 1016.82 1016.43 1016.03 1015.64 1015.26 1014.86 1014.43 1013.97 1013.46 1012.93 1012.39 1011.87 1011.41 1011.03 1010.74 1010.53 1010.40 1010.32 1010.26 1010.20 1010.13 1010.03
1016.39 1016.49 1016.58 1016.66 1016.69 1016.67 1016.61 1016.52 1016.45 1016.43 1016.49 1016.64 1016.89 1017.19 1017.50 1017.78 1017.98 1018.06 1018.01 1017.85 1017.58 1017.24 1016.86 1016.46 1016.05 1015.63 1015.19 1014.72 1014.22 1013.68 1013.13 1012.57 1012.05 1011.58 1011.19 1010.89 1010.66 1010.49 1010.37 1010.27 1010.16 1010.04 1009.89
1016.27 1016.39 1016.52 1016.62 1016.68 1016.69 1016.64 1016.57 1016.50 1016.48 1016.53 1016.68 1016.91 1017.20 1017.51 1017.80 1018.02 1018.14 1018.15 1018.03 1017.82 1017.53 1017.18 1016.80 1016.39 1015.96 1015.51 1015.02 1014.49 1013.94 1013.37 1012.81 1012.28 1011.81 1011.42 1011.10 1010.85 1010.66 1010.51 1010.36 1010.21 1010.03 1009.84
1016.03 1016.19 1016.34 1016.47 1016.56 1016.59 1016.58 1016.53 1016.47 1016.46 1016.50 1016.63 1016.83 1017.10 1017.40 1017.69 1017.93 1018.08 1018.13 1018.08 1017.93 1017.70 1017.41 1017.08 1016.70 1016.28 1015.83 1015.34 1014.80 1014.24 1013.67 1013.11 1012.59 1012.12 1011.72 1011.40 1011.14 1010.93 1010.75 1010.57 1010.38 1010.16 1009.92
1015.70 1015.88 1016.06 1016.22 1016.34 1016.40 1016.41 1016.39 1016.35 1016.34 1016.38 1016.49 1016.67 1016.91 1017.19 1017.47 1017.72 1017.90 1018.00 1018.01 1017.94 1017.78 1017.57 1017.29 1016.96 1016.59 1016.16 1015.68 1015.16 1014.61 1014.05 1013.50 1012.98 1012.52 1012.13 1011.81 1011.54 1011.32 1011.11 1010.91 1010.69 1010.43 1010.15
1015.33 1015.52 1015.71 1015.89 1016.04 1016.13 1016.17 1016.17 1016.15 1016.14 1016.18 1016.27 1016.43 1016.65 1016.91 1017.17 1017.43 1017.64 1017.78 1017.86 1017.86 1017.78 1017.65 1017.45 1017.19 1016.86 1016.48 1016.04 1015.56 1015.03 1014.49 1013.96 1013.46 1013.01 1012.63 1012.30 1012.03 1011.80 1011.58 1011.35 1011.10 1010.82 1010.51
1014.94 1015.14 1015.35 1015.54 1015.70 1015.82 1015.88 1015.90 1015.90 1015.90 1015.93 1016.01 1016.14 1016.34 1016.58 1016.84 1017.09 1017.32 1017.51 1017.64 1017.70 1017.71 1017.65 1017.53 1017.34 1017.09 1016.77 1016.38 1015.94 1015.46 1014.95 1014.45 1013.97 1013.54 1013.16 1012.84 1012.56 1012.32 1012.08 1011.84 1011.57 1011.26 1010.92
1014.56 1014.78 1015.00 1015.21 1015.39 1015.51 1015.59 1015.62 1015.63 1015.63 1015.65 1015.72 1015.83 1016.01 1016.22 1016.47 1016.73 1016.97 1017.18 1017.35 1017.47 1017.54 1017.55 1017.50 1017.39 1017.21 1016.95 1016.63 1016.25 1015.83 1015.37 1014.91 1014.46 1014.05 1013.68 1013.35 1013.06 1012.80 1012.54 1012.28 1011.98 1011.66 1011.30
1014.18 1014.43 1014.67 1014.90 1015.10 1015.24 1015.32 1015.36 1015.36 1015.35 1015.36 1015.41 1015.51 1015.66 1015.85 1016.08 1016.33 1016.57 1016.80 1017.00 1017.16 1017.27 1017.34 1017.35 1017.30 1017.19 1017.01 1016.76 1016.45 1016.08 1015.69 1015.27 1014.86 1014.46 1014.09 1013.76 1013.46 1013.17 1012.89 1012.60 1012.28 1011.94 1011.56
1013.77 1014.06 1014.35 1014.61 1014.82 1014.97 1015.06 1015.09 1015.09 1015.07 1015.06 1015.08 1015.16 1015.28 1015.45 1015.66 1015.90 1016.13 1016.36 1016.57 1016.75 1016.89 1016.99 1017.05 1017.05 1017.00 1016.89 1016.72 1016.48 1016.19 1015.85 1015.49 1015.11 1014.73 1014.37 1014.03 1013.70 1013.39 1013.07 1012.75 1012.41 1012.05 1011.65
1013.26 1013.62 1013.97 1014.27 1014.52 1014.68 1014.78 1014.80 1014.78 1014.74 1014.71 1014.71 1014.76 1014.86 1015.02 1015.21 1015.42 1015.65 1015.86 1016.07 1016.25 1016.40 1016.53 1016.62 1016.67 1016.67 1016.62 1016.51 1016.35 1016.13 1015.86 1015.55 1015.21 1014.85 1014.50 1014.14 1013.79 1013.44 1013.09 1012.73 1012.37 1011.99 1011.59
1012.60 1013.05 1013.48 1013.84 1014.12 1014.31 1014.41 1014.43 1014.40 1014.34 1014.29 1014.28 1014.31 1014.39 1014.52 1014.70 1014.90 1015.11 1015.32 1015.51 1015.69 1015.85 1015.98 1016.09 1016.17 1016.22 1016.23 1016.19 1016.09 1015.94 1015.73 1015.48 1015.17 1014.84 1014.49 1014.12 1013.74 1013.36 1012.98 1012.59 1012.20 1011.81 1011.40
1011.76 1012.31 1012.82 1013.25 1013.57 1013.79 1013.90 1013.93 1013.90 1013.83 1013.77 1013.75 1013.77 1013.85 1013.97 1014.14 1014.33 1014.54 1014.74 1014.93 1015.10 1015.26 1015.40 1015.52 1015.63 1015.71 1015.77 1015.78 1015.75 1015.66 1015.52 1015.31 1015.05 1014.74 1014.39 1014.02 1013.62 1013.22 1012.81 1012.40 1011.99 1011.58 1011.18
1010.75 1011.39 1011.97 1012.47 1012.84 1013.10 1013.23 1013.27 1013.25 1013.19 1013.14 1013.13 1013.16 1013.24 1013.38 1013.55 1013.75 1013.95 1014.15 1014.34 1014.51 1014.67 1014.82 1014.95 1015.08 1015.20 1015.29 1015.36 1015.38 1015.35 1015.26 1015.10 1014.88 1014.60 1014.26 1013.89 1013.49 1013.07 1012.64 1012.22 1011.79 1011.38 1010.98
1009.61 1010.32 1010.97 1011.52 1011.94 1012.23 1012.40 1012.47 1012.47 1012.44 1012.42 1012.43 1012.49 1012.60 1012.76 1012.95 1013.17 1013.38 1013.59 1013.78 1013.96 1014.12 1014.27 1014.42 1014.57 1014.71 1014.84 1014.94 1015.01 1015.03 1014.98 1014.87 1014.69 1014.44 1014.13 1013.77 1013.37 1012.95 1012.52 1012.09 1011.66 1011.25 1010.85
Thickness
5766 5766 5765 5764 5763 5761 5760 5759 5758 5757 5756 5755 5754 5753 5753 5752 5750 5748 5747 5745 5744 5743 5741 5739 5738 5736 5734 5733 5731 5729 5727 5725 5724 5722 5721 5719 5718 5716 5715 5714 5712 5711 5710
5766 5765 5764 5763 5762 5761 5760 5758 5757 5756 5755 5754 5752 5752 5752 5751 5750 5748 5746 5745 5744 5743 5742 5740 5738 5736 5734 5733 5731 5729 5727 5725 5723 5722 5720 5719 5717 5716 5714 5713 5711 5710 5709
5766 5765 5764 5763 5762 5760 5759 5758 5756 5754 5753 5753 5751 5751 5750 5749 5748 5747 5746 5745 5744 5743 5741 5739 5738 5736 5735 5733 5731 5729 5727 5725 5723 5721 5719 5718 5717 5715 5713 5712 5710 5709 5708
5766 5765 5763 5762 5761 5760 5758 5757 5755 5753 5751 5750 5750 5749 5749 5748 5747 5746 5745 5744 5743 5742 5741 5739 5737 5736 5734 5732 5730 5728 5726 5724 5722 5720 5719 5717 5715 5714 5712 5711 5710 5709 5707
5766 5764 5763 5761 5760 5759 5758 5757 5754 5752 5750 5749 5748 5747 5747 5746 5746 5745 5744 5743 5741 5740 5739 5738 5736 5735 5733 5731 5729 5727 5725 5723 5721 5720 5718 5716 5715 5713 5711 5711 5710 5708 5707
5766 5764 5762 5761 5760 5758 5756 5755 5753 5752 5750 5749 5748 5746 5745 5745 5744 5743 5742 5741 5740 5739 5737 5736 5734 5733 5731 5730 5728 5726 5724 5722 5720 5719 5717 5716 5714 5712 5711 5710 5710 5709 5706
5766 5764 5762 5761 5759 5758 5756 5755 5753 5750 5748 5747 5744 5741 5741 5742 5742 5741 5740 5739 5738 5737 5735 5734 5732 5730 5729 5728 5726 5725 5723 5721 5719 5718 5716 5715 5713 5712 5710 5710 5709 5708 5705
5766 5764 5763 5761 5759 5757 5755 5754 5752 5749 5747 5746 5742 5737 5734 5735 5738 5739 5738 5736 5735 5734 5733 5732 5730 5728 5727 5725 5724 5723 5722 5720 5718 5717 5715 5714 5712 5711 5709 5708 5707 5705 5703
5766 5765 5763 5761 5759 5757 5755 5753 5752 5749 5745 5744 5743 5738 5732 5728 5730 5733 5734 5733 5732 5731 5730 5729 5728 5726 5724 5723 5722 5721 5719 5718 5717 5715 5714 5713 5711 5710 5708 5706 5705 5703 5701
5766 5765 5763 5761 5759 5757 5755 5754 5752 5749 5746 5742 5741 5740 5738 5735 5729 5726 5729 5730 5730 5728 5727 5727 5726 5724 5722 5721 5719 5718 5717 5715 5714 5713 5712 5711 5710 5708 5707 5706 5704 5702 5700
5766 5765 5763 5761 5759 5757 5755 5754 5752 5749 5747 5744 5741 5739 5736 5733 5731 5726 5723 5725 5726 5727 5726 5725 5723 5722 5720 5719 5717 5716 5715 5713 5712 5711 5710 5709 5708 5706 5705 5703 5702 5700 5699
5765 5764 5763 5761 5759 5757 5755 5753 5751 5749 5747 5744 5742 5740 5737 5734 5730 5727 5723 5722 5722 5724 5724 5723 5722 5720 5719 5717 5716 5714 5713 5711 5710 5708 5707 5706 5705 5703 5702 5701 5699 5698 5697
5763 5763 5762 5761 5759 5757 5756 5753 5751 5749 5746 5744 5741 5740 5738 5736 5734 5730 5725 5721 5719 5720 5721 5721 5720 5719 5717 5715 5714 5712 5711 5709 5708 5706 5704 5703 5702 5701 5699 5698 5697 5695 5694
5763 5763 5762 5761 5759 5758 5756 5753 5751 5748 5746 5743 5742 5740 5738 5736 5734 5731 5727 5722 5717 5716 5716 5717 5718 5717 5716 5714 5712 5710 5709 5707 5705 5704 5702 5701 5699 5698 5697 5695 5694 5692 5691
5764 5763 5761 5760 5758 5757 5755 5752 5749 5747 5745 5742 5740 5738 5737 5735 5733 5731 5728 5724 5719 5714 5713 5715 5715 5716 5714 5712 5710 5707 5706 5704 5703 5701 5700 5698 5696 5695 5693 5692 5691 5689 5688
5763 5761 5760 5758 5756 5755 5753 5750 5747 5746 5743 5741 5739 5736 5734 5733 5731 5729 5726 5724 5721 5716 5713 5714 5714 5713 5711 5709 5707 5705 5703 5701 5700 5698 5696 5695 5693 5691 5690 5688 5687 5685 5684
5762 5760 5758 5755 5753 5752 5750 5748 5745 5743 5741 5739 5737 5735 5732 5731 5729 5727 5725 5723 5720 5717 5712 5713 5712 5710 5708 5706 5704 5702 5700 5698 5696 5695 5693 5691 5689 5687 5686 5685 5683 5681 5680
5760 5758 5755 5753 5751 5750 5748 5746 5743 5742 5739 5736 5734 5732 5730 5729 5727 5725 5723 5721 5718 5716 5712 5709 5708 5706 5704 5702 5700 5698 5696 5695 5693 5691 5690 5688 5686 5684 5682 5681 5679 5678 5676
5758 5755 5752 5750 5748 5747 5745 5743 5741 5739 5737 5734 5732 5730 5728 5726 5724 5722 5720 5718 5716 5714 5711 5707 5705 5703 5700 5698 5696 5694 5692 5690 5689 5688 5685 5684 5682 5680 5679 5677 5676 5674 5673
5755 5752 5750 5748 5746 5744 5742 5740 5738 5736 5733 5731 5730 5728 5726 5724 5722 5720 5717 5715 5713 5709 5706 5703 5701 5698 5696 5694 5691 5689 5687 5686 5684 5683 5681 5680 5678 5676 5675 5673 5672 5670 5669
5753 5750 5747 5745 5743 5741 5739 5737 5735 5732 5729 5727 5725 5724 5723 5721 5719 5717 5715 5711 5708 5705 5702 5699 5696 5694 5692 5689 5688 5686 5683 5681 5679 5678 5676 5675 5674 5672 5670 5669 5667 5666 5664
5748 5745 5743 5740 5738 5738 5736 5733 5731 5728 5725 5722 5720 5719 5718 5717 5715 5713 5711 5708 5705 5702 5699 5696 5693 5690 5688 5686 5683 5681 5678 5675 5674 5674 5671 5670 5669 5667 5666 5665 5664 5662 5660
5743 5740 5738 5736 5734 5733 5732 5729 5727 5724 5721 5718 5715 5714 5713 5712 5709 5707 5705 5703 5700 5698 5696 5693 5690 5688 5685 5684 5680 5676 5673 5672 5670 5670 5666 5665 5664 5662 5662 5661 5660 5658 5656
5738 5735 5733 5731 5729 5728 5726 5724 5721 5718 5715 5713 5711 5709 5706 5704 5703 5700 5698 5696 5694 5693 5690 5689 5687 5685 5683 5680 5677 5674 5671 5667 5665 5663 5661 5660 5659 5658 5658 5656 5655 5653 5651
5732 5730 5728 5726 5724 5722 5721 5718 5715 5712 5709 5707 5705 5703 5701 5699 5696 5694 5691 5688 5687 5686 5685 5683 5681 5679 5677 5675 5672 5668 5665 5662 5660 5658 5656 5654 5654 5652 5652 5651 5650 5648 5646
5727 5725 5722 5720 5718 5716 5714 5711 5708 5705 5702 5700 5698 5696 5695 5692 5690 5687 5684 5682 5680 5679 5677 5676 5674 5672 5670 5668 5666 5663 5661 5657 5654 5653 5652 5649 5648 5646 5647 5647 5645 5643 5641